When you browse on this site, cookies collect data to enhance your experience and personalize the content and advertising you see.
Visit our Privacy Policy to learn more. By continuing to use the site, you agree to this use of cookies and data.
  • In Latvia
  • List of Countries
  • For 7 days
  • Water Temperature
  • Weather Map
  • Weather Widgets
  • user-avatar
    Login

    Hourly Weather Inverclyde

    Today, 29 January, Wednesday

    Time Temperature Precipitation Wind Pressure Humidity
    00:00 0°C° 0 mm 7 mps 739 mmHg 83%
    01:00 +1°C° 0 mm 6 mps 739 mmHg 84%
    02:00 +1°C° 0 mm 6 mps 740 mmHg 84%
    03:00 +1°C° 0 mm 6 mps 740 mmHg 85%
    04:00 +1°C° 0.1 mm 6 mps 741 mmHg 85%
    05:00 +1°C° 0.1 mm 6 mps 741 mmHg 86%
    06:00 +1°C° 0.1 mm 6 mps 742 mmHg 86%
    07:00 +1°C° 0 mm 6 mps 742 mmHg 84%
    08:00 +1°C° 0 mm 6 mps 742 mmHg 82%
    09:00 +1°C° 0 mm 5 mps 743 mmHg 80%
    10:00 +1°C° 0 mm 5 mps 742 mmHg 79%
    11:00 +2°C° 0 mm 5 mps 742 mmHg 78%
    12:00 +2°C° 0 mm 5 mps 742 mmHg 77%
    13:00 +3°C° 0.2 mm 4 mps 741 mmHg 81%
    14:00 +3°C° 0.2 mm 3 mps 741 mmHg 86%
    15:00 +4°C° 0.2 mm 2 mps 740 mmHg 90%
    16:00 +4°C° 0.2 mm 2 mps 741 mmHg 92%
    17:00 +4°C° 0.2 mm 2 mps 741 mmHg 94%
    18:00 +4°C° 0.2 mm 2 mps 741 mmHg 96%
    19:00 +3°C° 0 mm 2 mps 741 mmHg 96%
    20:00 +3°C° 0 mm 2 mps 742 mmHg 96%
    21:00 +3°C° 0 mm 2 mps 742 mmHg 96%
    22:00 +3°C° 0 mm 2 mps 743 mmHg 96%
    23:00 +3°C° 0 mm 2 mps 743 mmHg 95%

    Tomorrow, 30 January, Thursday

    Time Temperature Precipitation Wind Pressure Humidity
    00:00 +2°C° 0 mm 3 mps 743 mmHg 95%
    01:00 +3°C° 0.2 mm 3 mps 743 mmHg 95%
    02:00 +3°C° 0.2 mm 3 mps 743 mmHg 95%
    03:00 +4°C° 0.2 mm 2 mps 743 mmHg 95%
    04:00 +4°C° 0.4 mm 3 mps 742 mmHg 95%
    05:00 +4°C° 0.4 mm 3 mps 741 mmHg 94%
    06:00 +5°C° 0.4 mm 3 mps 741 mmHg 94%
    07:00 +5°C° 0.2 mm 3 mps 739 mmHg 94%
    08:00 +4°C° 0.2 mm 3 mps 738 mmHg 94%
    09:00 +4°C° 0.2 mm 3 mps 737 mmHg 94%
    10:00 +5°C° 1.5 mm 3 mps 736 mmHg 93%
    11:00 +5°C° 1.5 mm 3 mps 735 mmHg 93%
    12:00 +5°C° 1.5 mm 4 mps 734 mmHg 92%
    13:00 +6°C° 0.6 mm 5 mps 734 mmHg 91%
    14:00 +5°C° 0.6 mm 6 mps 734 mmHg 91%
    15:00 +6°C° 0.6 mm 8 mps 734 mmHg 90%
    16:00 +6°C° 0 mm 7 mps 735 mmHg 89%
    17:00 +5°C° 0 mm 7 mps 736 mmHg 88%
    18:00 +5°C° 0 mm 7 mps 737 mmHg 87%
    19:00 +5°C° 0 mm 7 mps 738 mmHg 87%
    20:00 +4°C° 0 mm 7 mps 739 mmHg 86%
    21:00 +3°C° 0 mm 7 mps 740 mmHg 86%
    22:00 +2°C° 0 mm 6 mps 741 mmHg 87%
    23:00 +2°C° 0 mm 5 mps 742 mmHg 88%

    Day after tomorrow, 31 January, Friday

    Time Temperature Precipitation Wind Pressure Humidity
    00:00 +1°C° 0 mm 4 mps 743 mmHg 89%
    01:00 +2°C° 0 mm 3 mps 743 mmHg 89%
    02:00 +2°C° 0 mm 3 mps 742 mmHg 90%
    03:00 +3°C° 0 mm 2 mps 742 mmHg 90%
    04:00 +3°C° 0.3 mm 2 mps 742 mmHg 91%
    05:00 +3°C° 0.3 mm 2 mps 741 mmHg 92%
    06:00 +4°C° 0.3 mm 1 mps 740 mmHg 92%
    07:00 +4°C° 0.2 mm 2 mps 740 mmHg 93%
    08:00 +4°C° 0.2 mm 3 mps 739 mmHg 93%
    09:00 +5°C° 0.2 mm 3 mps 739 mmHg 94%
    10:00 +6°C° 0 mm 4 mps 739 mmHg 91%
    11:00 +7°C° 0 mm 5 mps 739 mmHg 88%
    12:00 +8°C° 0 mm 6 mps 739 mmHg 85%
    13:00 +8°C° 0 mm 6 mps 739 mmHg 85%
    14:00 +9°C° 0 mm 6 mps 738 mmHg 84%
    15:00 +9°C° 0 mm 6 mps 738 mmHg 84%
    16:00 +8°C° 0.2 mm 6 mps 738 mmHg 84%
    17:00 +7°C° 0.2 mm 6 mps 737 mmHg 85%
    18:00 +5°C° 0.2 mm 6 mps 737 mmHg 86%
    19:00 +5°C° 0.1 mm 6 mps 737 mmHg 86%
    20:00 +5°C° 0.1 mm 6 mps 737 mmHg 86%
    21:00 +5°C° 0.1 mm 7 mps 737 mmHg 86%
    22:00 +5°C° 0.1 mm 6 mps 737 mmHg 86%
    23:00 +5°C° 0.1 mm 6 mps 736 mmHg 87%

    1 February, Saturday

    Time Temperature Precipitation Wind Pressure Humidity
    00:00 +4°C° 0.1 mm 6 mps 736 mmHg 88%
    01:00 +4°C° 0.1 mm 6 mps 736 mmHg 88%
    02:00 +4°C° 0.1 mm 7 mps 736 mmHg 88%
    03:00 +4°C° 0.1 mm 7 mps 735 mmHg 88%
    04:00 +4°C° 0.2 mm 7 mps 735 mmHg 88%
    05:00 +4°C° 0.2 mm 7 mps 734 mmHg 88%
    06:00 +4°C° 0.2 mm 7 mps 733 mmHg 88%
    07:00 +4°C° 0.5 mm 7 mps 733 mmHg 88%
    08:00 +4°C° 0.5 mm 7 mps 733 mmHg 88%
    09:00 +5°C° 0.5 mm 7 mps 733 mmHg 88%
    10:00 +5°C° 0.7 mm 7 mps 733 mmHg 88%
    11:00 +5°C° 0.7 mm 8 mps 733 mmHg 88%
    12:00 +6°C° 0.7 mm 8 mps 734 mmHg 88%
    13:00 +6°C° 0.1 mm 7 mps 735 mmHg 87%
    14:00 +6°C° 0.1 mm 7 mps 736 mmHg 87%
    15:00 +6°C° 0.1 mm 7 mps 738 mmHg 86%
    16:00 +5°C° 0.1 mm 6 mps 740 mmHg 86%
    17:00 +5°C° 0.1 mm 6 mps 742 mmHg 86%
    18:00 +5°C° 0.1 mm 5 mps 743 mmHg 86%
    19:00 +5°C° 0.1 mm 5 mps 745 mmHg 87%
    20:00 +4°C° 0.1 mm 4 mps 746 mmHg 88%
    21:00 +4°C° 0.1 mm 3 mps 748 mmHg 89%
    22:00 +3°C° 0 mm 3 mps 748 mmHg 90%
    23:00 +4°C° 0 mm 2 mps 749 mmHg 91%

    2 February, Sunday

    Time Temperature Precipitation Wind Pressure Humidity
    00:00 +3°C° 0 mm 2 mps 749 mmHg 92%
    01:00 +3°C° 0 mm 2 mps 749 mmHg 92%
    02:00 +4°C° 0 mm 1 mps 749 mmHg 91%
    03:00 +4°C° 0 mm 1 mps 750 mmHg 91%
    04:00 +4°C° 0 mm 1 mps 749 mmHg 91%
    05:00 +4°C° 0 mm 1 mps 748 mmHg 90%
    06:00 +4°C° 0 mm 1 mps 748 mmHg 90%
    07:00 +3°C° 0.1 mm 2 mps 747 mmHg 90%
    08:00 +3°C° 0.1 mm 2 mps 747 mmHg 91%
    09:00 +3°C° 0.1 mm 2 mps 746 mmHg 91%
    10:00 +4°C° 0.4 mm 2 mps 746 mmHg 92%
    11:00 +4°C° 0.4 mm 2 mps 746 mmHg 92%
    12:00 +4°C° 0.4 mm 2 mps 746 mmHg 93%
    13:00 +4°C° 0 mm 3 mps 746 mmHg 91%
    14:00 +5°C° 0 mm 4 mps 745 mmHg 88%
    15:00 +6°C° 0 mm 5 mps 745 mmHg 86%
    16:00 +6°C° 0.1 mm 5 mps 746 mmHg 88%
    17:00 +5°C° 0.1 mm 5 mps 746 mmHg 89%
    18:00 +5°C° 0.1 mm 4 mps 746 mmHg 91%
    19:00 +5°C° 0.1 mm 4 mps 746 mmHg 91%
    20:00 +5°C° 0.1 mm 4 mps 746 mmHg 90%
    21:00 +5°C° 0.1 mm 4 mps 747 mmHg 90%
    22:00 +5°C° 0.2 mm 4 mps 746 mmHg 90%
    23:00 +5°C° 0.2 mm 4 mps 746 mmHg 90%

    3 February, Monday

    Time Temperature Precipitation Wind Pressure Humidity
    00:00 +5°C° 0.2 mm 4 mps 746 mmHg 89%
    01:00 +5°C° 0.4 mm 5 mps 746 mmHg 90%
    02:00 +5°C° 0.4 mm 5 mps 745 mmHg 90%
    03:00 +5°C° 0.4 mm 5 mps 745 mmHg 91%
    04:00 +4°C° 0.1 mm 6 mps 745 mmHg 90%
    05:00 +4°C° 0.1 mm 6 mps 745 mmHg 88%
    06:00 +4°C° 0.1 mm 6 mps 745 mmHg 87%
    07:00 +4°C° 0 mm 6 mps 745 mmHg 86%
    08:00 +4°C° 0 mm 6 mps 746 mmHg 86%
    09:00 +4°C° 0 mm 6 mps 746 mmHg 85%
    10:00 +4°C° 0 mm 6 mps 746 mmHg 82%
    11:00 +5°C° 0 mm 6 mps 747 mmHg 79%
    12:00 +7°C° 0 mm 6 mps 747 mmHg 76%
    13:00 +6°C° 0 mm 5 mps 747 mmHg 77%
    14:00 +6°C° 0 mm 4 mps 746 mmHg 77%
    15:00 +7°C° 0 mm 3 mps 746 mmHg 78%
    16:00 +5°C° 0 mm 3 mps 746 mmHg 82%
    17:00 +5°C° 0 mm 2 mps 746 mmHg 86%
    18:00 +4°C° 0 mm 2 mps 746 mmHg 91%
    19:00 +4°C° 0 mm 2 mps 745 mmHg 90%
    20:00 +5°C° 0 mm 1 mps 745 mmHg 90%
    21:00 +5°C° 0 mm 1 mps 744 mmHg 89%
    22:00 +5°C° 0.4 mm 1 mps 743 mmHg 91%
    23:00 +6°C° 0.4 mm 1 mps 743 mmHg 93%
    Show more